{"data":{"norad_id":66212,"epoch":"2026-09-20T13:49:12.634752Z","epoch_age_seconds":90138,"freshness":"FRESH","line1":"1 66212U 25244G   26263.57584068  .00017833  00000+0  53788-3 0  9991","line2":"2 66212  53.1596  43.5456 0001268  90.7359 269.3789 15.34388230 51518","mean_motion":15.3438823,"eccentricity":0.0001268,"inclination_deg":53.1596,"raan_deg":43.5456,"arg_perigee_deg":90.7359,"mean_anomaly_deg":269.3789,"bstar":0.00053788,"rev_number":5151,"period_min":93.848477969621,"perigee_km":461.87080037282,"apogee_km":463.60564632946,"semimajor_km":6840.8752233511,"source":"CELESTRAK","updated_at":"2026-09-21T09:00:35.840838Z"}}